Location: Kikino
(54.4440°N, 112.0940°W)
Time: 19:51:06
(UTC+00:00)

A-11 Canister half - Pass Details

Date: 28 May 2024
Orbit: 1525 x 1683 km, 47.3° (Epoch: 12 June)

Event Time Altitude Azimuth Distance (km) Brightness Sun altitude
Rises 00:49:58 0° 167° (SSE) 4,663 11.4 22.5°
Reaches altitude 10° 00:57:23 10° 129° (SE) 3,706 10.6 21.4°
Maximum altitude 00:58:16 10° 123° (ESE) 3,697 10.6 21.3°
Drops below altitude 10° 00:59:10 10° 117° (ESE) 3,715 10.5 21.2°
Sets 01:06:39 0° 79° (E) 4,744 11.0 20.1°
